Regional Weather Roundup
Issued by NWS Sterling, VA

Home | Current Version | Previous Version | Text Only | Print | Product List | Glossary Off
Versions: 1 2 3 4 5 6 7 8 9 10 11 12 13 14 15 16 17 18 19 20 21 22 23 24 25 26 27 28 29 30 31 32 33 34 35 36 37 38 39 40 41 42 43 44 45 46 47 48 49 50

516
ASUS41 KLWX 090210
RWRLWX

REGIONAL WEATHER ROUNDUP
NATIONAL WEATHER SERVICE BALTIMORE MD/WASHINGTON DC
900 PM EST MON FEB 08 2016

Note: "FAIR" indicates few or no clouds below 12,000 feet
with no significant weather and/or obstructions to visibility.
 TC=TEMPERATURE CELSIUS

 * =Non NWS site. Station does not report precipitation (e.g. rain,
    snow, etc.), thunder, or fog.

DCZ001-MDZ009-015-VAZ040>042-051-053>054-090300-
WASHINGTON METRO

CITY           SKY/WX    TMP DP  RH WIND       PRES   REMARKS
WASHINGTON NAT CLOUDY    40  33  76 SE8       29.71F
DULLES         CLOUDY    39  31  72 SE10      29.68F
ANDREWS AFB    MOCLDY    37  32  81 S13       29.69S
FT BELVOIR     MOCLDY    40  32  75 SE13      29.70S
QUANTICO       CLOUDY    41  33  73 SE10      29.71S
COLLEGE PARK*  CLOUDY    41  34  75 SE5       29.70F
LEESBURG*      MOCLDY    41  34  75 SE8       29.67F
MANASSAS*      CLOUDY    39  34  81 SE7       29.68F
GAITHERSBURG*  CLOUDY    37  28  70 SE8       29.71F

$$

MDZ006>007-011-014-090300-
BALTIMORE METRO

CITY           SKY/WX    TMP DP  RH WIND       PRES   REMARKS
BWI AIRPORT    DRIZZLE   39  33  79 SE6       29.70F
MD SCIENCE CTR   N/A     40  33  76 MISG      29.71S
ANNAPOLIS      LGT RAIN  39  35  86 S8        29.71F
FORT MEADE*    CLOUDY    37  32  81 SE6       29.73S

$$

MDZ012-015-019>023-090300-
MARYLAND EASTERN SHORE

CITY           SKY/WX    TMP DP  RH WIND       PRES   REMARKS
OCEAN CITY     CLOUDY    39  33  79 SE7       29.76F
SALISBURY      LGT RAIN  36  34  92 E6        29.74F
BAY BRIDGE AP*   N/A     39  34  81 CALM      29.72F
CAMBRIDGE*     CLOUDY    36  32  87 SE8       29.73F
EASTON*        LGT RAIN  37  37 100 SE7       29.77S

$$

MDZ017>025-090300-
SOUTHERN MARYLAND

CITY           SKY/WX    TMP DP  RH WIND       PRES   REMARKS
PATUXENT RIVER CLOUDY    38  34  85 SE12      29.72F
ST INIGOES     MOCLDY    39  34  82 E7        29.71F
LEONARDTOWN*   MOCLDY    36  34  93 SE5       29.73F

$$

MDZ003>005-090300-
NORTH CENTRAL MARYLAND

CITY           SKY/WX    TMP DP  RH WIND       PRES   REMARKS
FREDERICK*     CLOUDY    36  34  93 SE3       29.71F
HAGERSTOWN APT CLOUDY    39  29  67 SE8       29.64F
WESTMINSTER*   RAIN      36  34  93 SE8       29.67F

$$

MDZ501>502-090300-
WESTERN MARYLAND

CITY           SKY/WX    TMP DP  RH WIND       PRES   REMARKS
OAKLAND*       CLOUDY    28  28 100 CALM      29.55F
CUMBERLAND*    CLOUDY    34  34 100 W3        29.67F

$$

VAZ025>031-090300-
SHENANDOAH VALLEY

CITY           SKY/WX    TMP DP  RH WIND       PRES   REMARKS
WINCHESTER*    CLOUDY    41  30  65 S7        29.63F
FRONT ROYAL*   CLOUDY    37  32  81 S5        29.63F
LURAY*         CLOUDY    36  32  87 SW6       29.64S
NEW MARKET*    CLOUDY    35  33  93 W3        29.63S
STAUNTON*      CLOUDY    39  37  90 CALM      29.64F
WAYNESBORO*    CLOUDY    35  32  90 CALM      29.62F

$$

WVZ021-048>050-054>055-090300-
EASTERN WEST VIRGINIA PANHANDLE

CITY           SKY/WX    TMP DP  RH WIND       PRES   REMARKS
MARTINSBURG    CLOUDY    40  28  62 SE7       29.64F
PETERSBURG*    MIX PCPN  37  32  84 CALM      29.63S

$$

VAZ036>039-050-090300-
CENTRAL FOOTHILLS

CITY           SKY/WX    TMP DP  RH WIND       PRES   REMARKS
CHARLOTTESVILL LGT RAIN  38  35  89 NW3       29.66S
CULPEPER*      CLOUDY    39  29  68 CALM      29.67F
ORANGE*        DRIZZLE   41  36  81 E3        29.68S
GORDONSVILLE*  CLOUDY    38  37  96 CALM      29.66S
WARRENTON*     CLOUDY    41  34  75 SE7       29.67S

$$

VAZ055>057-090300-
NORTH AND CENTRAL PIEDMONT

CITY           SKY/WX    TMP DP  RH WIND       PRES   REMARKS
FREDERICKSBRG* MOCLDY    40  34  80 E7        29.69R
STAFFORD*      CLOUDY    39  32  75 SE5       29.72F

$$

NCZ024-NYZ072-PAZ021-071-VAZ022-071-090300-
OTHER REGIONAL OBSERVATIONS

CITY           SKY/WX    TMP DP  RH WIND       PRES   REMARKS
NEW YORK CITY  CLOUDY    29  21  72 VRB6      29.82R
PHILADELPHIA   LGT RAIN  36  24  62 SE12      29.77S WCI  28
PITTSBURGH     CLOUDY    34  31  88 SW5       29.59F
ROANOKE        FAIR      34  31  88 NW7       29.67F
RICHMOND       CLOUDY    39  33  79 SE8       29.69S
RALEIGH        MOCLDY    39  37  93 S3        29.68S

$$

ANZ530>537-090300-
MARINE OBSERVATIONS

STATION/POSITION TIME  TEMP    WIND        PRES
                       AIR SEA DIR/SP/G
                 (UTC) (F)     (DEG/KT/KT) (MB)
THOMAS PT LIGHT  NOT AVBL
BALT KEY BRIDGE  0100   40     100/ 11/ 13 1006.5R
COVE POINT       0100   39     180/ 16/ 18 1007.5R
LEWISETTA        0100   40 41  140/  9/ 11 1006.2F
SOLOMONS ISLAND  0100   40 42  150/ 13/ 17   N/A
PINEY POINT      0100          150/ 14/ 16   N/A

$$





USA.gov is the U.S. government's official web portal to all federal, state and local government web resources and services.